Terminal Aerodrome Forecast
Issued by NWS

Current Version | Previous Version | Text Only | Print | Product List | Glossary On
Versions: 1 2 3 4 5 6 7 8 9 10 11 12 13 14 15 16 17 18 19 20 21 22 23 24 25 26 27 28 29 30 31 32 33 34 35 36 37 38 39 40 41 42 43 44 45 46 47 48 49 50
000
FTUS41 KCTP 291550 AAA
TAFBFD
TAF AMD
KBFD 291550Z 2916/3012 17010G17KT P6SM OVC050
     FM291900 16009G19KT 1SM -SN BR OVC015
     FM292100 18010G20KT 1SM -SN BR OVC003
     FM300300 17008KT 3SM -SN OVC015=

USA.gov is the U.S. government's official web portal to all federal, state and local government web resources and services.